TimeEDT,TemperatureF,Dew PointF,Humidity,Sea Level PressureIn,VisibilityMPH,Wind Direction,Wind SpeedMPH,Gust SpeedMPH,PrecipitationIn,Events,Conditions,WindDirDegrees,DateUTC
12:42 AM,73.4,71.6,94,30.02,4.0,South,4.6,-,N/A,,Mostly Cloudy,180,2013-07-21 04:42:00
12:53 AM,72.0,72.0,100,29.98,4.0,SW,3.5,-,N/A,,Mostly Cloudy,220,2013-07-21 04:53:00
1:00 AM,73.4,71.6,94,30.01,3.0,SW,4.6,-,N/A,,Scattered Clouds,220,2013-07-21 05:00:00
1:15 AM,73.4,71.6,94,30.01,2.5,West,4.6,-,N/A,,Clear,280,2013-07-21 05:15:00
1:18 AM,73.4,71.6,94,30.01,1.8,WNW,4.6,-,N/A,,Partly Cloudy,290,2013-07-21 05:18:00
1:34 AM,73.4,71.6,94,30.01,2.5,Calm,Calm,-,N/A,,Partly Cloudy,0,2013-07-21 05:34:00
1:53 AM,73.0,71.1,93,29.97,4.0,SSW,3.5,-,N/A,,Partly Cloudy,210,2013-07-21 05:53:00
2:16 AM,71.6,71.6,100,30.00,1.8,Calm,Calm,-,N/A,,Clear,0,2013-07-21 06:16:00
2:21 AM,71.6,71.6,100,30.00,1.0,West,3.5,-,N/A,,Mist,280,2013-07-21 06:21:00
2:29 AM,71.6,71.6,100,30.00,0.5,Calm,Calm,-,N/A,Fog,Fog,0,2013-07-21 06:29:00
2:37 AM,71.6,71.6,100,30.00,1.2,Calm,Calm,-,N/A,,Scattered Clouds,0,2013-07-21 06:37:00
2:44 AM,71.6,71.6,100,30.00,2.5,Calm,Calm,-,N/A,,Scattered Clouds,0,2013-07-21 06:44:00
2:53 AM,72.0,71.1,97,29.96,4.0,SSW,3.5,-,N/A,,Mostly Cloudy,210,2013-07-21 06:53:00
3:53 AM,72.0,70.0,93,29.95,5.0,Calm,Calm,-,N/A,,Clear,0,2013-07-21 07:53:00
4:25 AM,71.6,69.8,94,29.98,5.0,Calm,Calm,-,N/A,,Scattered Clouds,0,2013-07-21 08:25:00
4:36 AM,71.6,69.8,94,29.98,5.0,SSW,3.5,-,N/A,,Mostly Cloudy,210,2013-07-21 08:36:00
4:53 AM,72.0,71.1,97,29.95,5.0,SSW,4.6,-,N/A,,Overcast,200,2013-07-21 08:53:00
5:19 AM,71.6,71.6,100,29.99,5.0,SW,4.6,-,N/A,,Overcast,230,2013-07-21 09:19:00
5:32 AM,71.6,71.6,100,29.99,5.0,SW,5.8,-,N/A,,Overcast,220,2013-07-21 09:32:00
5:53 AM,72.0,70.0,93,29.95,6.0,SW,6.9,-,N/A,,Overcast,220,2013-07-21 09:53:00
6:53 AM,72.0,71.1,97,29.96,4.0,WSW,3.5,-,0.00,,Overcast,250,2013-07-21 10:53:00
7:53 AM,73.0,71.1,93,29.97,6.0,WSW,8.1,-,N/A,,Overcast,250,2013-07-21 11:53:00
8:53 AM,73.9,71.1,91,30.00,7.0,WSW,6.9,-,N/A,,Overcast,250,2013-07-21 12:53:00
9:53 AM,77.0,72.0,84,30.00,9.0,Calm,Calm,-,N/A,,Mostly Cloudy,0,2013-07-21 13:53:00
10:11 AM,75.2,71.6,89,30.03,10.0,Calm,Calm,-,N/A,,Scattered Clouds,0,2013-07-21 14:11:00
10:53 AM,78.1,72.0,81,30.00,10.0,SW,6.9,-,N/A,,Clear,220,2013-07-21 14:53:00
11:53 AM,81.0,73.0,77,29.99,10.0,SSW,6.9,-,N/A,,Clear,210,2013-07-21 15:53:00
12:53 PM,84.9,73.0,67,29.98,10.0,West,3.5,-,N/A,,Clear,280,2013-07-21 16:53:00
1:53 PM,86.0,72.0,63,29.95,10.0,Variable,3.5,-,N/A,,Partly Cloudy,0,2013-07-21 17:53:00
2:53 PM,87.1,72.0,61,29.93,10.0,Variable,5.8,-,N/A,,Partly Cloudy,0,2013-07-21 18:53:00
3:53 PM,84.0,70.0,63,29.92,10.0,North,8.1,-,N/A,,Mostly Cloudy,350,2013-07-21 19:53:00
4:00 PM,80.6,69.8,70,29.96,10.0,NW,9.2,-,N/A,Thunderstorm,Thunderstorm,320,2013-07-21 20:00:00
4:10 PM,78.8,69.8,74,29.98,2.0,WNW,16.1,25.3,N/A,Thunderstorm,Unknown,300,2013-07-21 20:10:00
4:18 PM,73.4,69.8,88,29.99,0.2,West,15.0,25.3,0.30,Rain-Thunderstorm,Heavy Thunderstorms and Rain,270,2013-07-21 20:18:00
4:27 PM,71.6,69.8,94,29.96,5.0,Variable,4.6,21.9,0.94,Rain-Thunderstorm,Heavy Thunderstorms and Rain,0,2013-07-21 20:27:00
4:34 PM,71.6,69.8,94,29.97,5.0,East,8.1,-,0.94,Rain-Thunderstorm,Light Thunderstorms and Rain,90,2013-07-21 20:34:00
4:40 PM,73.4,69.8,88,29.97,10.0,Calm,Calm,-,0.94,Thunderstorm,Thunderstorm,0,2013-07-21 20:40:00
4:53 PM,73.0,70.0,90,29.95,10.0,SE,9.2,-,0.94,Rain-Thunderstorm,Light Thunderstorms and Rain,130,2013-07-21 20:53:00
5:34 PM,77.0,73.4,89,29.96,10.0,East,9.2,-,0.01,,Partly Cloudy,80,2013-07-21 21:34:00
5:53 PM,75.9,71.1,85,29.93,10.0,ENE,8.1,-,0.01,,Clear,60,2013-07-21 21:53:00
6:53 PM,75.0,69.1,82,29.93,10.0,NNE,6.9,-,N/A,,Partly Cloudy,30,2013-07-21 22:53:00
7:53 PM,73.9,71.1,91,29.97,10.0,WSW,9.2,-,0.00,Rain,Light Rain,250,2013-07-21 23:53:00
8:29 PM,73.4,71.6,94,29.99,4.0,SW,4.6,-,0.05,Rain-Thunderstorm,Rain,230,2013-07-22 00:29:00
8:44 PM,73.4,71.6,94,29.99,5.0,SSW,5.8,-,0.07,Rain,Rain,200,2013-07-22 00:44:00
8:53 PM,73.0,71.1,93,29.95,5.0,Calm,Calm,-,0.08,Rain,Light Rain,0,2013-07-22 00:53:00
9:53 PM,73.0,72.0,96,29.97,5.0,SSW,4.6,-,0.07,Rain,Light Rain,210,2013-07-22 01:53:00
10:16 PM,73.4,71.6,94,30.01,4.0,South,6.9,-,0.03,Rain,Light Rain,170,2013-07-22 02:16:00
10:25 PM,71.6,71.6,100,30.01,4.0,South,5.8,-,0.04,Rain,Light Rain,190,2013-07-22 02:25:00
10:53 PM,73.0,72.0,96,29.99,4.0,SSW,4.6,-,0.08,Rain,Rain,200,2013-07-22 02:53:00
11:53 PM,72.0,71.1,97,29.99,7.0,SW,3.5,-,0.10,Rain,Light Rain,220,2013-07-22 03:53:00